When you browse on this site, cookies collect data to enhance your experience and personalize the content and advertising you see.
Visit our Privacy Policy to learn more. By continuing to use the site, you agree to this use of cookies and data.
  • In Spain
  • List of Countries
  • For 7 days
  • Water Temperature
  • Satellite Maps
  • Weather Map
  • Weather Widgets
  • user-avatar
    Login

    Hourly Weather Malaya Lapushka

    Today, 18 January, Friday

    Time Temperature Precipitation Wind Pressure Humidity
    00:00 -2°C° 0.1 mm 6 mps 723 mmHg 87%
    01:00 -1°C° 0.1 mm 5 mps 723 mmHg 87%
    02:00 -1°C° 0 mm 4 mps 724 mmHg 89%
    03:00 -1°C° 0.3 mm 4 mps 724 mmHg 89%
    04:00 -2°C° 0.3 mm 4 mps 725 mmHg 89%
    05:00 -2°C° 0.3 mm 4 mps 725 mmHg 88%
    06:00 -3°C° 0.1 mm 4 mps 726 mmHg 89%
    07:00 -4°C° 0.1 mm 3 mps 726 mmHg 90%
    08:00 -5°C° 0 mm 2 mps 727 mmHg 92%
    09:00 -5°C° 0.1 mm 2 mps 727 mmHg 92%
    10:00 -5°C° 0.1 mm 2 mps 728 mmHg 91%
    11:00 -5°C° 0.1 mm 2 mps 728 mmHg 91%
    12:00 -5°C° 0.3 mm 2 mps 728 mmHg 92%
    13:00 -5°C° 0.3 mm 2 mps 728 mmHg 93%
    14:00 -4°C° 0.3 mm 1 mps 728 mmHg 94%
    15:00 -4°C° 0.6 mm 1 mps 728 mmHg 95%
    16:00 -7°C° 0.6 mm 2 mps 728 mmHg 96%
    17:00 -7°C° 0.6 mm 2 mps 728 mmHg 96%
    18:00 -8°C° 0.3 mm 2 mps 728 mmHg 95%
    19:00 -8°C° 0.3 mm 2 mps 729 mmHg 93%
    20:00 -8°C° 0.3 mm 2 mps 729 mmHg 92%
    21:00 -9°C° 0 mm 2 mps 730 mmHg 93%
    22:00 -10°C° 0 mm 2 mps 730 mmHg 94%
    23:00 -12°C° 0 mm 2 mps 731 mmHg 94%

    Tomorrow, 19 January, Saturday

    Time Temperature Precipitation Wind Pressure Humidity
    00:00 -14°C° 0 mm 3 mps 731 mmHg 95%
    01:00 -14°C° 0 mm 3 mps 732 mmHg 95%
    02:00 -14°C° 0 mm 3 mps 732 mmHg 95%
    03:00 -13°C° 0 mm 3 mps 732 mmHg 95%
    04:00 -12°C° 0 mm 4 mps 732 mmHg 94%
    05:00 -11°C° 0 mm 4 mps 733 mmHg 93%
    06:00 -10°C° 0.1 mm 4 mps 733 mmHg 93%
    07:00 -10°C° 0.1 mm 4 mps 733 mmHg 92%
    08:00 -9°C° 0.1 mm 4 mps 734 mmHg 92%
    09:00 -9°C° 0.2 mm 4 mps 734 mmHg 90%
    10:00 -9°C° 0.2 mm 4 mps 734 mmHg 88%
    11:00 -8°C° 0.2 mm 4 mps 735 mmHg 87%
    12:00 -9°C° 0.1 mm 4 mps 735 mmHg 87%
    13:00 -9°C° 0.1 mm 4 mps 735 mmHg 87%
    14:00 -8°C° 0.1 mm 3 mps 736 mmHg 87%
    15:00 -9°C° 0 mm 3 mps 736 mmHg 89%
    16:00 -10°C° 0 mm 3 mps 736 mmHg 91%
    17:00 -9°C° 0 mm 2 mps 737 mmHg 93%
    18:00 -8°C° 0.1 mm 2 mps 737 mmHg 93%
    19:00 -9°C° 0.1 mm 3 mps 737 mmHg 93%
    20:00 -8°C° 0.1 mm 3 mps 737 mmHg 93%
    21:00 -7°C° 0 mm 3 mps 738 mmHg 92%
    22:00 -7°C° 0 mm 3 mps 738 mmHg 91%
    23:00 -8°C° 0 mm 4 mps 738 mmHg 90%

    Day after tomorrow, 20 January, Sunday

    Time Temperature Precipitation Wind Pressure Humidity
    00:00 -8°C° 0 mm 4 mps 738 mmHg 90%
    01:00 -9°C° 0 mm 4 mps 738 mmHg 91%
    02:00 -10°C° 0 mm 4 mps 737 mmHg 92%
    03:00 -11°C° 0.1 mm 5 mps 737 mmHg 91%
    04:00 -11°C° 0.1 mm 5 mps 736 mmHg 90%
    05:00 -10°C° 0.1 mm 6 mps 736 mmHg 90%
    06:00 -9°C° 0.3 mm 6 mps 735 mmHg 89%
    07:00 -8°C° 0.3 mm 6 mps 735 mmHg 87%
    08:00 -6°C° 0.3 mm 6 mps 734 mmHg 86%
    09:00 -6°C° 0.5 mm 6 mps 734 mmHg 87%
    10:00 -5°C° 0.5 mm 6 mps 734 mmHg 89%
    11:00 -5°C° 0.5 mm 6 mps 734 mmHg 90%
    12:00 -6°C° 0.4 mm 5 mps 734 mmHg 89%
    13:00 -7°C° 0.4 mm 5 mps 734 mmHg 88%
    14:00 -7°C° 0.4 mm 5 mps 733 mmHg 87%
    15:00 -8°C° 0 mm 4 mps 734 mmHg 87%
    16:00 -9°C° 0 mm 4 mps 734 mmHg 88%
    17:00 -9°C° 0 mm 3 mps 735 mmHg 88%
    18:00 -10°C° 0 mm 3 mps 735 mmHg 90%
    19:00 -12°C° 0 mm 3 mps 735 mmHg 91%
    20:00 -13°C° 0 mm 3 mps 736 mmHg 92%
    21:00 -14°C° 0 mm 3 mps 736 mmHg 93%
    22:00 -15°C° 0 mm 3 mps 736 mmHg 94%
    23:00 -14°C° 0 mm 2 mps 736 mmHg 94%

    21 January, Monday

    Time Temperature Precipitation Wind Pressure Humidity
    00:00 -15°C° 0 mm 2 mps 736 mmHg 95%
    01:00 -15°C° 0 mm 2 mps 737 mmHg 96%
    02:00 -16°C° 0 mm 2 mps 737 mmHg 97%
    03:00 -16°C° 0 mm 2 mps 737 mmHg 97%
    04:00 -16°C° 0 mm 2 mps 737 mmHg 97%
    05:00 -16°C° 0 mm 2 mps 737 mmHg 97%
    06:00 -16°C° 0 mm 2 mps 737 mmHg 97%
    07:00 -16°C° 0 mm 2 mps 737 mmHg 98%
    08:00 -17°C° 0 mm 2 mps 737 mmHg 98%
    09:00 -15°C° 0 mm 2 mps 738 mmHg 95%
    10:00 -15°C° 0 mm 3 mps 738 mmHg 93%
    11:00 -14°C° 0 mm 3 mps 738 mmHg 90%
    12:00 -14°C° 0.1 mm 3 mps 738 mmHg 89%
    13:00 -15°C° 0.1 mm 4 mps 738 mmHg 88%
    14:00 -14°C° 0.1 mm 4 mps 739 mmHg 87%
    15:00 -14°C° 0.1 mm 3 mps 739 mmHg 89%
    16:00 -14°C° 0.1 mm 3 mps 739 mmHg 91%
    17:00 -15°C° 0.1 mm 3 mps 739 mmHg 93%
    18:00 -14°C° 0.1 mm 2 mps 740 mmHg 94%
    19:00 -14°C° 0.1 mm 2 mps 740 mmHg 95%
    20:00 -15°C° 0.1 mm 2 mps 740 mmHg 96%
    21:00 -15°C° 0 mm 2 mps 740 mmHg 96%
    22:00 -15°C° 0 mm 2 mps 741 mmHg 97%
    23:00 -16°C° 0 mm 2 mps 741 mmHg 97%

    22 January, Tuesday

    Time Temperature Precipitation Wind Pressure Humidity
    00:00 -17°C° 0 mm 2 mps 741 mmHg 98%
    01:00 -17°C° 0 mm 2 mps 741 mmHg 98%
    02:00 -18°C° 0 mm 2 mps 741 mmHg 98%
    03:00 -16°C° 0 mm 1 mps 741 mmHg 98%
    04:00 -16°C° 0 mm 1 mps 740 mmHg 98%
    05:00 -16°C° 0 mm 1 mps 740 mmHg 98%
    06:00 -16°C° 0 mm 1 mps 740 mmHg 98%
    07:00 -16°C° 0 mm 1 mps 741 mmHg 98%
    08:00 -16°C° 0 mm 1 mps 741 mmHg 98%
    09:00 -15°C° 0 mm 1 mps 741 mmHg 97%
    10:00 -14°C° 0 mm 1 mps 741 mmHg 97%
    11:00 -13°C° 0 mm 1 mps 741 mmHg 96%
    12:00 -12°C° 0 mm 1 mps 741 mmHg 95%
    13:00 -11°C° 0 mm 1 mps 741 mmHg 94%
    14:00 -11°C° 0 mm 1 mps 741 mmHg 94%
    15:00 -12°C° 0 mm 0 mps 741 mmHg 95%
    16:00 -13°C° 0 mm 0 mps 741 mmHg 96%
    17:00 -14°C° 0 mm 0 mps 741 mmHg 97%
    18:00 -14°C° 0 mm 1 mps 740 mmHg 98%
    19:00 -14°C° 0 mm 1 mps 740 mmHg 98%
    20:00 -14°C° 0 mm 1 mps 740 mmHg 98%
    21:00 -14°C° 0 mm 1 mps 740 mmHg 98%
    22:00 -14°C° 0 mm 1 mps 740 mmHg 98%
    23:00 -13°C° 0 mm 1 mps 740 mmHg 98%

    23 January, Wednesday

    Time Temperature Precipitation Wind Pressure Humidity
    00:00 -15°C° 0 mm 2 mps 740 mmHg 98%
    01:00 -14°C° 0 mm 2 mps 740 mmHg 97%
    02:00 -13°C° 0 mm 2 mps 740 mmHg 97%
    03:00 -13°C° 0 mm 2 mps 740 mmHg 97%
    04:00 -13°C° 0 mm 2 mps 740 mmHg 97%
    05:00 -12°C° 0 mm 2 mps 739 mmHg 96%
    06:00 -12°C° 0 mm 2 mps 739 mmHg 96%
    07:00 -12°C° 0 mm 3 mps 739 mmHg 96%
    08:00 -12°C° 0 mm 3 mps 739 mmHg 95%
    09:00 -10°C° 0 mm 3 mps 739 mmHg 94%
    10:00 -10°C° 0 mm 3 mps 739 mmHg 93%
    11:00 -10°C° 0 mm 4 mps 740 mmHg 91%
    12:00 -10°C° 0 mm 4 mps 739 mmHg 90%
    13:00 -10°C° 0 mm 3 mps 739 mmHg 90%
    14:00 -10°C° 0 mm 3 mps 739 mmHg 89%
    15:00 -12°C° 0 mm 3 mps 739 mmHg 90%
    16:00 -14°C° 0 mm 3 mps 739 mmHg 92%
    17:00 -15°C° 0 mm 3 mps 739 mmHg 93%
    18:00 -14°C° 0 mm 3 mps 740 mmHg 93%
    19:00 -13°C° 0 mm 3 mps 740 mmHg 93%
    20:00 -12°C° 0 mm 3 mps 740 mmHg 92%
    21:00 -13°C° 0 mm 3 mps 740 mmHg 92%
    22:00 -13°C° 0 mm 3 mps 740 mmHg 92%
    23:00 -14°C° 0 mm 3 mps 740 mmHg 92%
    Show more